Regional Weather Roundup
Issued by NWS

Home | Current Version | Previous Version | Text Only | Print | Product List | Glossary Off
Versions: 1 2 3 4 5 6 7 8 9 10 11 12 13 14 15 16 17 18 19 20 21 22 23 24 25 26 27 28 29 30 31 32 33 34 35 36 37 38 39 40 41 42 43 44 45 46 47 48 49 50

000
ASUS43 KLMK 010702
RWRKY
KENTUCKY REGIONAL WEATHER ROUNDUP
NATIONAL WEATHER SERVICE LOUISVILLE KY
300 AM EDT WED JUL 01 2015

NOTE "FAIR" INDICATES FEW OR NO CLOUDS BELOW 12,000 FEET
WITH NO SIGNIFICANT WEATHER AND/OR OBSTRUCTIONS TO VISIBILITY.

KYZ001>023-026-027-061>063-070>075-010800-
WESTERN AND SOUTH CENTRAL KENTUCKY

CITY           SKY/WX    TMP DP  RH WIND       PRES   REMARKS
PADUCAH        CLEAR     73  68  84 SW5       29.90F
HENDERSON      PTCLDY    70  66  88 SW5       29.89S
OWENSBORO      MOCLDY    70  68  93 CALM      29.89F
HOPKINSVILLE   MOCLDY    73  69  88 S7        29.93S
BOWLING GREEN  PTCLDY    72  68  87 SW7       29.93S
GLASGOW        NOT AVBL
$$

KYZ024-025-028>034-038-045-046-053-010800-
NORTH CENTRAL KENTUCKY

CITY           SKY/WX    TMP DP  RH WIND       PRES   REMARKS
LOUISVILLE/SDF MOCLDY    69  62  78 NE3       29.89S
LOUISVILLE/LOU CLEAR     68  62  81 CALM      29.90S
FORT KNOX      CLEAR     68  65  90 S6        29.89S
$$

KYZ035>037-039>044-047>052-055>060-089>105-010800-
NORTHEAST KENTUCKY

CITY           SKY/WX    TMP DP  RH WIND       PRES   REMARKS
LEXINGTON      LGT RAIN  66  63  90 S8        29.91S
COVINGTON      CLEAR     64  62  93 CALM      29.88F FOG
FRANKFORT      CLOUDY    65  62  90 CALM      29.89F
$$

KYZ054-064>069-076>088-106>120-010800-
SOUTHEAST KENTUCKY

CITY           SKY/WX    TMP DP  RH WIND       PRES   REMARKS
JACKSON        PTCLDY    61  58  90 CALM      29.94F
LONDON         CLEAR     67  62  84 SW6       29.95S
SOMERSET       NOT AVBL
MIDDLESBORO    NOT AVBL
MONTICELLO     SUNNY     65  65 100 CALM      29.98S FOG
$$



USA.gov is the U.S. government's official web portal to all federal, state and local government web resources and services.